Location: Prague
(50.0830°N, 14.4670°E)
Time: 20:04:09
(UTC+02:00)

ISS - Pass Details

Date: 26 September 2021
Orbit: 417 x 423 km, 51.6° (Epoch: 28 October)

Event Time Altitude Azimuth Distance (km) Brightness Sun altitude
Rises 19:20:12 0° 265° (W) 2,361 2.4 -5.5°
Reaches altitude 10° 19:22:18 10° 268° (W) 1,499 0.9 -5.8°
Maximum altitude 19:25:39 69° 353° (N) 452 -3.5 -6.4°
Drops below altitude 10° 19:29:01 10° 77° (ENE) 1,504 -1.5 -6.9°
Enters shadow 19:29:21 - 78° (ENE) 1,640 -1.4 -6.9°
